Pioneer Knutsen — LMIK — position and weather

sailwx.info

Track history (hours):
 
Tides and Currents Weather Stations Pressure Air Temp Water Temp Dewpoint Dewpoint Depression Visibility Wind Speed Wind Dir Waves Ship Positions

Pioneer Knutsen

Last reported at 2014-Oct-22 20:14 UTC. Time now 2014-Oct-23 06:08 UTC.
Position N 63°35' E 009°26'.

Length 70 m; draft 3.6 m.

Type: Tanker. MMSI: 259393000.

Date/timePositionNaut miles runAvg speedWind from/ knotsBaromVisibWave heightAir tempDewpointWater temp
2014-Oct-22 20:14N 63°35' E 009°26'811.7
2014-Oct-22 19:33N 63°43' E 009°31'3 0.3
2014-Oct-22 11:31N 63°40' E 009°29'  
2014-Oct-18 02:27N 63°35' E 009°26'8111.4
2014-Oct-17 19:22N 64°45' E 010°60'911.7
2014-Oct-17 18:33N 64°52' E 011°16'1211.8
2014-Oct-17 17:33N 64°60' E 011°36'1412.2
2014-Oct-17 16:22N 65°12' E 011°53'6 0.4
2014-Oct-17 00:32N 65°17' E 011°58'1212.3
2014-Oct-16 23:33N 65°06' E 011°48'1211.9
2014-Oct-16 22:34N 64°57' E 011°30'1211.7
2014-Oct-16 21:34N 64°49' E 011°09'  
2014-Oct-13 19:28N 64°49' E 011°09'1213.0
2014-Oct-13 18:33N 64°57' E 011°29'23 1.3
2014-Oct-13 00:32N 65°16' E 011°57'1212.4
2014-Oct-12 23:33N 65°05' E 011°46'1212.1
2014-Oct-12 22:33N 64°56' E 011°27'1312.5
2014-Oct-12 21:31N 64°47' E 011°05'  
Track history (hours):
 
Tides and Currents Weather Stations Pressure Air Temp Water Temp Dewpoint Dewpoint Depression Visibility Wind Speed Wind Dir Waves Ship Positions

Pioneer Knutsen

Last reported at 2014-Oct-22 20:14 UTC. Time now 2014-Oct-23 06:08 UTC.
Position N 63°35' E 009°26'.

Length 70 m; draft 3.6 m.

Type: Tanker. MMSI: 259393000.

Date/timePositionNaut miles runAvg speedWind from/ knotsBaromVisibWave heightAir tempDewpointWater temp
2014-Oct-22 20:14N 63°35' E 009°26'811.7
2014-Oct-22 19:33N 63°43' E 009°31'3 0.3
2014-Oct-22 11:31N 63°40' E 009°29'  
2014-Oct-18 02:27N 63°35' E 009°26'8111.4
2014-Oct-17 19:22N 64°45' E 010°60'911.7
2014-Oct-17 18:33N 64°52' E 011°16'1211.8
2014-Oct-17 17:33N 64°60' E 011°36'1412.2
2014-Oct-17 16:22N 65°12' E 011°53'6 0.4
2014-Oct-17 00:32N 65°17' E 011°58'1212.3
2014-Oct-16 23:33N 65°06' E 011°48'1211.9
2014-Oct-16 22:34N 64°57' E 011°30'1211.7
2014-Oct-16 21:34N 64°49' E 011°09'  
2014-Oct-13 19:28N 64°49' E 011°09'1213.0
2014-Oct-13 18:33N 64°57' E 011°29'23 1.3
2014-Oct-13 00:32N 65°16' E 011°57'1212.4
2014-Oct-12 23:33N 65°05' E 011°46'1212.1
2014-Oct-12 22:33N 64°56' E 011°27'1312.5
2014-Oct-12 21:31N 64°47' E 011°05'  

Dump ship's entire track history